Philadelphia Wings Airport, PA

12:38 AM EST on December 15, 2017 (GMT -0500)
Philadelphia Wings Airport

Weather History for KLOM - March, 2014

Change the Weather History Date:

Thursday, March 13, 2014

  Actual Average (KPNE) Record (KPNE)
Temperature  
Mean Temperature 26 °F -  
Max Temperature 32 °F 47 °F 78 °F (2006)
Min Temperature 21 °F 30 °F 18 °F (2017)
Degree Days  
Heating Degree Days 38    
Moisture  
Dew Point 6 °F    
Average Humidity 42    
Maximum Humidity 64    
Minimum Humidity 25    
Precipitation  
Precipitation 0.00 in - - ()
Sea Level Pressure  
Sea Level Pressure 29.73 in    
Wind  
Wind Speed 14 mph (WNW)    
Max Wind Speed 21 mph    
Max Gust Speed 34 mph    
Visibility 10 miles    
Events      
Averages and records for this station are not official NWS values.
T = Trace of Precipitation, MM = Missing Value Source: NWS Daily Summary

Daily Weather History Graph

Daily Weather History Graph

Search for Another Location

Airport or City:

Trip Planner

Search our weather history database for the weather conditions in past years. The results will help you decide how hot, cold, wet, or windy it might be!

Date:

Astronomy

Mar. 13, 2014 Rise Set
Actual Time 7:15 AM EDT 7:05 PM EDT
Civil Twilight 6:48 AM EDT 7:32 PM EDT
Nautical Twilight 6:17 AM EDT 8:04 PM EDT
Astronomical Twilight 5:45 AM EDT 8:36 PM EDT
Moon 4:29 PM EDT (3/13) 5:21 AM EDT (3/13)
Length of Visible Light 12h 44m
Length of Day
11h 49m
Waxing Gibbous, 91% of the Moon is Illuminated
Mar 13
Waxing Gibbous
Mar 16
Full
Mar 23
Last Quarter
Mar 30
New
Apr 7
First Quarter

Hourly Weather History & Observations

Time (EDT) Temp. Windchill Dew Point Humidity Pressure Visibility Wind Dir Wind Speed Gust Speed Precip Events Conditions
12:15 AM 30.2 °F 17.4 °F 19.4 °F 64% 29.31 in 10.0 mi NW 20.7 mph 33.4 mph N/A   Overcast
12:35 AM 28.4 °F 16.6 °F 17.6 °F 64% 29.32 in 10.0 mi WNW 16.1 mph 32.2 mph N/A   Overcast
12:55 AM 28.4 °F 19.7 °F 17.6 °F 64% 29.36 in 10.0 mi NW 9.2 mph 26.5 mph N/A   Overcast
1:15 AM 28.4 °F 18.0 °F 15.8 °F 59% 29.37 in 10.0 mi NW 12.7 mph 23.0 mph N/A   Overcast
1:35 AM 26.6 °F 13.8 °F 14.0 °F 59% 29.38 in 10.0 mi NW 17.3 mph 26.5 mph N/A   Mostly Cloudy
1:55 AM 26.6 °F 14.7 °F 12.2 °F 55% 29.40 in 10.0 mi NW 15.0 mph 26.5 mph N/A   Scattered Clouds
2:15 AM 24.8 °F 11.9 °F 12.2 °F 59% 29.42 in 10.0 mi WNW 16.1 mph 29.9 mph N/A   Scattered Clouds
2:35 AM 24.8 °F 11.9 °F 12.2 °F 59% 29.42 in 10.0 mi NW 16.1 mph 26.5 mph N/A   Scattered Clouds
2:55 AM 24.8 °F 14.6 °F 12.2 °F 59% 29.42 in 10.0 mi NW 10.4 mph 20.7 mph N/A   Mostly Cloudy
3:15 AM 23.0 °F 8.7 °F 10.4 °F 59% 29.44 in 10.0 mi NW 18.4 mph 34.5 mph N/A   Scattered Clouds
3:35 AM 23.0 °F 11.1 °F 10.4 °F 59% 29.45 in 10.0 mi NW 12.7 mph 23.0 mph N/A   Overcast
3:55 AM 23.0 °F 10.1 °F 10.4 °F 59% 29.46 in 10.0 mi WNW 15.0 mph 23.0 mph N/A   Overcast
4:15 AM 23.0 °F 9.6 °F 10.4 °F 59% 29.48 in 10.0 mi NW 16.1 mph 27.6 mph N/A   Overcast
4:35 AM 23.0 °F 11.7 °F 10.4 °F 59% 29.50 in 10.0 mi WNW 11.5 mph 21.9 mph N/A   Overcast
4:55 AM 23.0 °F 13.1 °F 10.4 °F 59% 29.50 in 10.0 mi NW 9.2 mph 20.7 mph N/A   Overcast
5:15 AM 23.0 °F 13.1 °F 8.6 °F 54% 29.52 in 10.0 mi NW 9.2 mph - N/A   Mostly Cloudy
5:35 AM 23.0 °F 9.2 °F 8.6 °F 54% 29.53 in 10.0 mi WNW 17.3 mph 29.9 mph N/A   Scattered Clouds
5:55 AM 21.2 °F 11.7 °F 8.6 °F 58% 29.55 in 10.0 mi WNW 8.1 mph 25.3 mph N/A   Scattered Clouds
6:15 AM 21.2 °F 10.1 °F 8.6 °F 58% 29.56 in 10.0 mi WNW 10.4 mph 24.2 mph N/A   Scattered Clouds
6:35 AM 21.2 °F 11.7 °F 8.6 °F 58% 29.59 in 10.0 mi WNW 8.1 mph 32.2 mph N/A   Scattered Clouds
6:55 AM 21.2 °F 8.3 °F 8.6 °F 58% 29.59 in 10.0 mi WNW 13.8 mph 21.9 mph N/A   Scattered Clouds
7:15 AM 21.2 °F 9.5 °F 8.6 °F 58% 29.61 in 10.0 mi WNW 11.5 mph 20.7 mph N/A   Scattered Clouds
7:35 AM 21.2 °F 7.8 °F 6.8 °F 54% 29.62 in 10.0 mi WNW 15.0 mph 23.0 mph N/A   Scattered Clouds
7:55 AM 21.2 °F 6.0 °F 6.8 °F 54% 29.63 in 10.0 mi WNW 19.6 mph 28.8 mph N/A   Scattered Clouds
8:15 AM 23.0 °F 10.6 °F 6.8 °F 50% 29.65 in 10.0 mi NW 13.8 mph 23.0 mph N/A   Mostly Cloudy
8:35 AM 23.0 °F 11.7 °F 8.6 °F 54% 29.66 in 10.0 mi NW 11.5 mph 23.0 mph N/A   Mostly Cloudy
8:55 AM 23.0 °F 10.1 °F 6.8 °F 50% 29.67 in 10.0 mi NW 15.0 mph 26.5 mph N/A   Scattered Clouds
9:15 AM 23.0 °F 13.1 °F 5.0 °F 46% 29.68 in 10.0 mi NW 9.2 mph 26.5 mph N/A   Scattered Clouds
9:35 AM 23.0 °F 8.7 °F 5.0 °F 46% 29.69 in 10.0 mi WNW 18.4 mph 26.5 mph N/A   Scattered Clouds
9:55 AM 23.0 °F 10.6 °F 6.8 °F 50% 29.70 in 10.0 mi WNW 13.8 mph 27.6 mph N/A   Scattered Clouds
10:15 AM 23.0 °F 12.4 °F 6.8 °F 50% 29.71 in 10.0 mi WNW 10.4 mph 28.8 mph N/A   Mostly Cloudy
10:35 AM 24.8 °F 12.9 °F 6.8 °F 46% 29.72 in 10.0 mi NW 13.8 mph 27.6 mph N/A   Mostly Cloudy
10:55 AM 26.6 °F 14.7 °F 6.8 °F 43% 29.72 in 10.0 mi NW 15.0 mph 24.2 mph N/A   Scattered Clouds
11:15 AM 26.6 °F 16.2 °F 8.6 °F 47% 29.73 in 10.0 mi NW 11.5 mph 32.2 mph N/A   Scattered Clouds
11:35 AM 24.8 °F 15.3 °F 8.6 °F 50% 29.74 in 10.0 mi WNW 9.2 mph 27.6 mph N/A   Scattered Clouds
11:55 AM 26.6 °F 13.8 °F 8.6 °F 47% 29.74 in 10.0 mi WNW 17.3 mph 26.5 mph N/A   Scattered Clouds
12:15 PM 28.4 °F 17.5 °F 8.6 °F 43% 29.75 in 10.0 mi WNW 13.8 mph 26.5 mph N/A   Clear
12:35 PM 26.6 °F 15.2 °F 5.0 °F 40% 29.75 in 10.0 mi NW 13.8 mph 27.6 mph N/A   Clear
12:55 PM 28.4 °F 17.0 °F 5.0 °F 37% 29.76 in 10.0 mi WNW 15.0 mph 28.8 mph N/A   Clear
1:15 PM 28.4 °F 17.0 °F 5.0 °F 37% 29.77 in 10.0 mi NW 15.0 mph 31.1 mph N/A   Clear
1:35 PM 30.2 °F 18.9 °F 5.0 °F 34% 29.77 in 10.0 mi NW 16.1 mph 28.8 mph N/A   Clear
1:55 PM 30.2 °F 17.8 °F 3.2 °F 32% 29.77 in 10.0 mi WNW 19.6 mph 27.6 mph N/A   Clear
2:15 PM 30.2 °F 17.4 °F 5.0 °F 34% 29.78 in 10.0 mi West 20.7 mph 28.8 mph N/A   Clear
2:35 PM 30.2 °F 21.3 °F 5.0 °F 34% 29.79 in 10.0 mi NW 10.4 mph 26.5 mph N/A   Clear
2:55 PM 32.0 °F 22.5 °F 1.4 °F 27% 29.79 in 10.0 mi NW 12.7 mph 28.8 mph N/A   Clear
3:15 PM 32.0 °F 21.6 °F 3.2 °F 30% 29.80 in 10.0 mi WNW 15.0 mph 24.2 mph N/A   Clear
3:35 PM 32.0 °F 21.2 °F 3.2 °F 30% 29.81 in 10.0 mi WNW 16.1 mph 28.8 mph N/A   Clear
3:55 PM 32.0 °F 19.8 °F 3.2 °F 30% 29.81 in 10.0 mi West 20.7 mph 29.9 mph N/A   Clear
4:15 PM 32.0 °F 21.6 °F 3.2 °F 30% 29.83 in 10.0 mi WNW 15.0 mph 28.8 mph N/A   Clear
4:35 PM 32.0 °F 23.6 °F 1.4 °F 27% 29.84 in 10.0 mi WNW 10.4 mph 27.6 mph N/A   Clear
4:55 PM 32.0 °F 22.1 °F 1.4 °F 27% 29.85 in 10.0 mi NW 13.8 mph 25.3 mph N/A   Clear
5:15 PM 32.0 °F 23.6 °F 1.4 °F 27% 29.86 in 10.0 mi NW 10.4 mph 26.5 mph N/A   Clear
5:35 PM 32.0 °F 22.5 °F 1.4 °F 27% 29.87 in 10.0 mi WNW 12.7 mph 25.3 mph N/A   Clear
5:55 PM 32.0 °F 23.0 °F 1.4 °F 27% 29.88 in 10.0 mi WNW 11.5 mph 26.5 mph N/A   Clear
6:15 PM 32.0 °F 21.6 °F -0.4 °F 25% 29.90 in 10.0 mi WNW 15.0 mph 25.3 mph N/A   Clear
6:35 PM 32.0 °F 23.0 °F -0.4 °F 25% 29.92 in 10.0 mi NW 11.5 mph 19.6 mph N/A   Clear
6:55 PM 32.0 °F 24.2 °F -0.4 °F 25% 29.93 in 10.0 mi NW 9.2 mph 16.1 mph N/A   Clear
7:15 PM 32.0 °F 24.8 °F -0.4 °F 25% 29.95 in 10.0 mi WNW 8.1 mph - N/A   Clear
7:35 PM 32.0 °F 24.2 °F -0.4 °F 25% 29.96 in 10.0 mi WNW 9.2 mph 25.3 mph N/A   Clear
7:55 PM 30.2 °F 22.6 °F -0.4 °F 27% 29.98 in 10.0 mi WNW 8.1 mph - N/A   Clear
8:15 PM 30.2 °F 25.4 °F -2.2 °F 25% 29.99 in 10.0 mi WNW 4.6 mph - N/A   Clear
8:35 PM 30.2 °F 24.3 °F -0.4 °F 27% 30.00 in 10.0 mi WNW 5.8 mph - N/A   Clear
8:55 PM 30.2 °F 22.6 °F -0.4 °F 27% 30.02 in 10.0 mi WNW 8.1 mph - N/A   Clear
9:15 PM 30.2 °F 25.4 °F -0.4 °F 27% 30.03 in 10.0 mi WNW 4.6 mph - N/A   Clear
9:35 PM 30.2 °F 25.4 °F -0.4 °F 27% 30.04 in 10.0 mi WNW 4.6 mph - N/A   Clear
9:55 PM 30.2 °F 25.4 °F -0.4 °F 27% 30.06 in 10.0 mi NW 4.6 mph - N/A   Clear
10:15 PM 30.2 °F 26.7 °F -0.4 °F 27% 30.07 in 10.0 mi West 3.5 mph - N/A   Clear
10:35 PM 30.2 °F 25.4 °F -0.4 °F 27% 30.09 in 10.0 mi WNW 4.6 mph - N/A   Clear
10:55 PM 30.2 °F 24.3 °F 1.4 °F 29% 30.09 in 10.0 mi WNW 5.8 mph - N/A   Clear
11:15 PM 28.4 °F 23.3 °F 1.4 °F 31% 30.10 in 10.0 mi West 4.6 mph - N/A   Clear
11:35 PM 28.4 °F 22.2 °F 1.4 °F 31% 30.11 in 10.0 mi West 5.8 mph - N/A   Clear
11:55 PM 28.4 °F 24.6 °F 1.4 °F 31% 30.11 in 10.0 mi WNW 3.5 mph - N/A   Clear